This is the latest recevied weather packets stored in our database for station/object AB0TJ. If no packets are shown the sender has not sent any weather packets the latest 10 day(s).
| Time | Temp. | Humidity | Pressure | Rain* | Wind** | Luminosity | Snow |
|---|---|---|---|---|---|---|---|
| 1778019434 | 21.67° C | 11% | 1004.2 hPa | 0 mm | - | 330 W/m² | - |
| 1778018954 | 21.67° C | 12% | 1004.4 hPa | 0 mm | - | 329 W/m² | - |
| 1778018369 | 21.67° C | 12% | 1004.5 hPa | 0 mm | - | 540 W/m² | - |
| 1778017819 | 21.67° C | 12% | 1004.7 hPa | 0 mm | - | 465 W/m² | - |
| 1778017246 | 21.67° C | 13% | 1004.8 hPa | 0 mm | - | 429 W/m² | - |
| 1778016659 | 21.67° C | 14% | 1004.8 hPa | 0 mm | - | 360 W/m² | - |
| 1778016109 | 22.22° C | 13% | 1004.9 hPa | 0 mm | - | 375 W/m² | - |
| 1778015623 | 22.78° C | 14% | 1004.9 hPa | 0 mm | - | 645 W/m² | - |
| 1778015089 | 22.78° C | 14% | 1005 hPa | 0 mm | - | 643 W/m² | - |
| 1778014523 | 22.78° C | 14% | 1005.2 hPa | 0 mm | - | 786 W/m² | - |
| 1778013979 | 22.78° C | 14% | 1005.1 hPa | 0 mm | - | 830 W/m² | - |
| 1778013469 | 22.22° C | 14% | 1005.4 hPa | 0 mm | - | 817 W/m² | - |
| 1778012872 | 22.22° C | 14% | 1005.4 hPa | 0 mm | - | 816 W/m² | - |
| 1778012329 | 22.22° C | 15% | 1005.5 hPa | 0 mm | - | 827 W/m² | - |
| 1778011759 | 22.22° C | 16% | 1005.5 hPa | 0 mm | - | 846 W/m² | - |
| 1778011164 | 21.67° C | 16% | 1005.5 hPa | 0 mm | - | 860 W/m² | - |
| 1778010604 | 21.67° C | 17% | 1005.4 hPa | 0 mm | - | 876 W/m² | - |
| 1778010019 | 21.11° C | 18% | 1005.5 hPa | 0 mm | - | 559 W/m² | - |
| 1778009508 | 21.11° C | 18% | 1005.6 hPa | 0 mm | - | 699 W/m² | - |
| 1778009019 | 20.56° C | 18% | 1005.7 hPa | 0 mm | - | 271 W/m² | - |
| 1778008520 | 21.11° C | 21% | 1005.9 hPa | 0 mm | - | 198 W/m² | - |
| 1778007992 | 21.67° C | 20% | 1005.9 hPa | 0 mm | - | 226 W/m² | - |
| 1778007398 | 21.11° C | 21% | 1006.2 hPa | 0 mm | - | 883 W/m² | - |
| 1778006839 | 20.56° C | 21% | 1006.1 hPa | 0 mm | - | 688 W/m² | - |
| 1778006344 | 21.11° C | 22% | 1006.3 hPa | 0 mm | - | 195 W/m² | - |
* Rain latest hour (hover to see other rain measurements)
** Current wind speed in m/s (hover to see current wind gust speed)